User: anonymous   Login
Location: Observatorio Las Palmas
(29.0667°N, 110.9333°W)
Time: 09:13:23
(UTC-07:00)
Language:

Skynet4D Del rocket - Orbit

View from above orbital plane
View from above orbital plane
View from above satellite
View from above satellite

Ground track
Ground track

The orbit data is extracted from the following two-line orbital elements,

1 25135U 98002B   16337.88832545 +.00000082 +00000-0 -22124-4 0  9994
2 25135 026.8831 116.0577 0356522 030.4415 142.6174 13.62343772941426
Epoch (UTC): 02 December 2016 21:19:11
Eccentricity: 0.0356522
inclination: 26.8831°
perigee height: 763 km
apogee height: 1291 km
right ascension of ascending node: 116.0577°
argument of perigee: 30.4415°
revolutions per day: 13.62343772
mean anomaly at epoch: 142.6174°
orbit number at epoch: 94142

The dashed part of the orbit path shows where the satellite is in the earth's shadow,  

DLR